Regional Weather Roundup
Issued by NWS

Home | Current Version | Previous Version | Graphics & Text | Print | Product List | Glossary On
Versions: 1 2 3 4 5 6 7 8 9 10 11 12 13 14 15 16 17 18 19 20 21 22 23 24 25 26 27 28 29 30 31 32 33 34 35 36 37 38 39 40 41 42 43 44 45 46 47 48 49 50
169
ASUS44 KJAN 161210
RWRMS

MISSISSIPPI HOURLY WEATHER ROUNDUP
NATIONAL WEATHER SERVICE JACKSON MS
700 AM CDT TUE SEP 16 2014

NOTE: "FAIR: INDICATES FEW OR NO CLOUDS BELOW 12,000 FEET WITH NO
SIGNIFICANT WEATHER AND/OR OBSTRUCTIONS TO VISIBILITY.

MSZ001>002-007>008-010>013-018>021-025>028-034>036-161300-
NORTHWEST MISSISSIPPI

CITY           SKY/WX    TMP DP  RH WIND       PRES   REMARKS
CLARKSDALE     FAIR      68  68 100 CALM      30.12S
CLEVELAND      FAIR      70  70 100 CALM      30.10S
GREENWOOD      LGT RAIN  71  68  90 E5        30.10S
6HR MIN TEMP:  70; 6HR MAX TEMP:  72; 6HR PCP: TRACE;

GREENVILLE     CLOUDY    71  68  90 NE3       30.11R
6HR MIN TEMP:  69; 6HR MAX TEMP:  72; 6HR PCP: TRACE;

GRENADA        FAIR      68  66  94 CALM      30.11S
OLIVE BRANCH   PTCLDY    64  64 100 NW6       30.12R
OXFORD         FAIR      66  66 100 CALM      30.13S
TUNICA         PTSUNNY   68  64  88 CALM      30.12S
$$

MSZ003>006-009-014>017-022>024-029>033-037>039-161300-
NORTHEAST MISSISSIPPI

CITY           SKY/WX    TMP DP  RH WIND       PRES   REMARKS
COLUMBUS AFB   LGT RAIN  72  71  97 N5        30.10S
6HR MIN TEMP:  72; 6HR MAX TEMP:  74; 6HR PCP: TRACE;

CORINTH        FOG       63  63 100 CALM      30.11S VSB<1/4
GOLDN TRIANGLE MOCLDY    73  66  78 NW5       30.12R
STARKVILLE     FAIR      70  68  94 CALM      30.11S
TUPELO         CLOUDY    72  67  84 CALM      30.11S
6HR MIN TEMP:  72; 6HR MAX TEMP:  74;

$$

MSZ040-058-161300-
CENTRAL MISSISSIPPI

CITY           SKY/WX    TMP DP  RH WIND       PRES   REMARKS
JACKSON INTL   MOCLDY    73  70  90 CALM      30.10R
6HR MIN TEMP:  71; 6HR MAX TEMP:  77;

JACKSON HAWKNS MOCLDY    75  69  81 CALM      30.10R
6HR MIN TEMP:  72; 6HR MAX TEMP:  78;

MERIDIAN KEY   CLEAR     72  70  93 N3        30.09R
6HR MIN TEMP:  71; 6HR MAX TEMP:  75; 6HR PCP: TRACE;

MERIDIAN NAS   PTCLDY    72  69  90 CALM      30.09R
6HR MIN TEMP:  71; 6HR MAX TEMP:  74;

RAYMOND        FAIR      70  64  83 CALM      30.10R HAZE
VICKSBURG      CLOUDY    70  68  93 E3        30.09R
6HR MIN TEMP:  70; 6HR MAX TEMP:  74;

$$

MSZ059>079-161300-
SOUTH MISSISSIPPI

CITY           SKY/WX    TMP DP  RH WIND       PRES   REMARKS
BROOKHAVEN     FAIR      72  72 100 CALM      30.11R
HATTIESBURG    PTCLDY    73  71  93 CALM      30.08S
6HR MIN TEMP:  72; 6HR MAX TEMP:  76;

MCCOMB         PTCLDY    76  72  87 N5        30.08R
6HR MIN TEMP:  75; 6HR MAX TEMP:  78;

NATCHEZ        MOCLDY    72  70  94 N5        30.09S
6HR MIN TEMP:  72; 6HR MAX TEMP:  73;

PINE BELT      CLEAR     70  66  88 CALM      30.09S
$$

MSZ080>082-161300-
COASTAL MISSISSIPPI

CITY           SKY/WX    TMP DP  RH WIND       PRES   REMARKS
BAY ST LOUIS   CLEAR     72  68  88 CALM      30.07
BILOXI         CLEAR     75  73  91 N6        30.05S
6HR MIN TEMP:  75; 6HR MAX TEMP:  79;

PASCAGOULA     CLOUDY    74  74 100 N5        30.06R FOG
6HR MIN TEMP:  73; 6HR MAX TEMP:  75;

GULFPORT       CLEAR     74  72  93 CALM      30.05R
6HR MIN TEMP:  74; 6HR MAX TEMP:  78;

$$



USA.gov is the U.S. government's official web portal to all federal, state and local government web resources and services.